[ hide orbit diagram ]
For accurate long-term ephemerides, please instead use our Horizons system.This orbit viewer was implemented using two-body methods, and hence should not be used for determining accurate long-term trajectories (over several years or decades) or planetary encounter circumstances.
Orbital Elements at Epoch 2459200.5 (2020-Dec-17.0) TDB
Reference: JPL 30 (heliocentric ecliptic J2000)
Element | Value | Uncertainty (1-sigma) | Units |
e | .1595063709684951 | 3.9433e-08 | |
a | 2.59181618101601 | 9.8535e-09 | au |
q | 2.178404987764722 | 1.04e-07 | au |
i | 13.53764022632318 | 4.1288e-06 | deg |
node | 354.3694092252292 | 1.8378e-05 | deg |
peri | 83.92531522272756 | 2.4476e-05 | deg |
M | 356.0633349902618 | 1.3609e-05 | deg |
tp | 2459217.165973292944 (2021-Jan-02.66597329) | 5.7605e-05 | TDB |
period | 1524.069325334521 4.17 | 8.6913e-06 2.38e-08 | d yr |
n | .2362097274813813 | 1.347e-09 | deg/d |
Q | 3.005227374267297 | 1.1425e-08 | au |
|
| | Orbit Determination Parameters
Additional Information
|
[ show covariance matrix ]
Physical Parameter Table
Parameter |
Symbol |
Value |
Units |
Sigma |
Reference |
Notes |
absolute magnitude |
H |
13.71 |
|
n/a |
E2021B10 |
|
diameter |
diameter |
4.714 |
km |
0.914 |
urn:nasa:pds:neowise_diameters_albedos::2.0[mainbelt] (http://adsabs.harvard.edu/abs/2011ApJ...741...68M) |
|
geometric albedo |
albedo |
0.417 |
|
0.134 |
urn:nasa:pds:neowise_diameters_albedos::2.0[mainbelt] (http://adsabs.harvard.edu/abs/2011ApJ...741...68M) |
|
|
11798 Davidsson | Discovered 1980 Mar. 16 by C.-I. Lagerkvist at the European Southern Observatory. |
The Ph.D. work of Björn Davidsson (b. 1974) at Uppsala University opened up new insights about the outgassing mechanism and splitting mechanics of cometary nuclei. |
NOTE: some special characters may not display properly (any characters within {} are an attempt to place the proper accent above a character) |
Reference: 20030501/MPCPages.arc | Last Updated: 2003-10-02 |
|
[ show close-approach data ]
|